Home > Weather > Erkrath > Past weeks

Flag for Germany Past Weather in Erkrath, North Rhine-Westphalia, Germany — Yesterday and Last 2 Weeks

Now
54 °F

Sunny.


Feels Like: 54 °F
Forecast: 49 / 70 °F
Wind: 2 mph from North

Location: Duesseldorf

Current Time: May 25, 2016 at 10:51:28 PM

Latest Report: May 25, 2016 at 10:20 PM


Visibility: 10 mi

Pressure: 29.98 "Hg

Humidity: 88%

Dew Point: 50 °F

Location of ErkrathLocation

Past Weather in Erkrath — Graph

°F

Erkrath Temperature Yesterday

Maximum temperature yesterday: 57 °F (at 1:50 PM)
Minimum temperature yesterday: 50 °F (at 12:20 AM)
Average temperature yesterday: 52 °F

High & Low Weather Summary for the Past Weeks

 TemperatureHumidityPressure
High79 °F (May 11, 4:50 PM)100% (May 19, 3:50 AM)30.12 "Hg (May 19, 3:50 AM)
Low41 °F (May 15, 5:20 AM)27% (May 13, 4:20 PM)29.47 "Hg (May 12, 1:20 PM)
Average58 °F69%29.88 "Hg
* Reported May 10 9:20 PM — May 25 9:20 PM, Erkrath, Weather by CustomWeather, © 2016

Note: Actual official high and low records may vary slightly from our data, if they occured in-between our weather recording intervals... More about our weather records

Advertising

Erkrath Weather History for the Previous 24 Hours

Scroll right to see more
 ConditionsComfort  
Time TempWeatherWind HumidityBarometerVisibility
9:20 PM
Wed, May 25
59 °FPartly sunny.2 mph77%29.98 "HgN/A
8:50 PM61 °FPartly sunny.3 mph68%29.98 "HgN/A
8:20 PM61 °FPartly sunny.5 mph68%29.98 "HgN/A
7:50 PM61 °FPartly sunny.3 mph68%29.98 "HgN/A
7:20 PM61 °FPartly sunny.5 mph63%29.98 "HgN/A
6:50 PM61 °FPartly sunny.7 mph63%29.98 "HgN/A
6:20 PM61 °FBroken clouds.7 mph63%29.98 "HgN/A
5:50 PM61 °FBroken clouds.6 mph63%29.98 "HgN/A
5:20 PM63 °FPartly sunny.6 mph56%29.98 "HgN/A
4:50 PM64 °FScattered clouds.7 mph52%29.95 "HgN/A
4:20 PM64 °FScattered clouds.6 mph52%29.95 "HgN/A
3:50 PM64 °FScattered clouds.6 mph52%29.98 "HgN/A
3:20 PM63 °FScattered clouds.8 mph56%29.98 "HgN/A
2:50 PM61 °FPartly sunny.6 mph59%29.98 "HgN/A
2:20 PM61 °FPartly sunny.8 mph59%29.98 "HgN/A
1:50 PM61 °FPartly sunny.6 mph59%29.98 "HgN/A
1:20 PM61 °FScattered clouds.5 mph59%29.98 "HgN/A
12:50 PM63 °FScattered clouds.5 mph59%29.98 "HgN/A
12:20 PM57 °FScattered clouds.6 mph63%29.98 "HgN/A
11:50 AM57 °FBroken clouds.5 mph67%29.98 "HgN/A
11:20 AM57 °FBroken clouds.N/A63%29.98 "HgN/A
10:50 AM55 °FBroken clouds.7 mph72%29.98 "HgN/A
10:20 AM55 °FBroken clouds.7 mph72%30.01 "HgN/A
9:50 AM55 °FBroken clouds.5 mph72%30.01 "HgN/A
9:20 AM54 °FBroken clouds.6 mph77%29.98 "HgN/A
8:50 AM54 °FPassing clouds.3 mph82%29.98 "HgN/A
8:20 AM52 °FPartly sunny.6 mph88%29.98 "HgN/A
7:50 AM52 °FLight rain. Partly sunny.3 mph82%29.98 "HgN/A
7:20 AM50 °FBroken clouds.3 mph94%29.98 "HgN/A
6:50 AM50 °FBroken clouds.3 mph88%29.98 "HgN/A
6:20 AM50 °FPassing clouds.1 mph94%29.98 "HgN/A
5:50 AM50 °FPartly cloudy.No wind94%29.98 "HgN/A
5:20 AM50 °FPassing clouds.2 mph94%29.98 "HgN/A
4:50 AM50 °FPartly cloudy.5 mph88%29.98 "HgN/A
4:20 AM50 °FPassing clouds.3 mph88%29.98 "HgN/A
3:50 AM50 °FPassing clouds.3 mph94%29.98 "HgN/A
3:20 AM50 °FPassing clouds.5 mph94%29.98 "HgN/A
2:50 AM50 °FPassing clouds.3 mph88%29.98 "HgN/A
2:20 AM50 °FPassing clouds.2 mph94%30.01 "HgN/A
1:50 AM50 °FPartly cloudy.6 mph94%30.01 "HgN/A
1:20 AM50 °FPartly cloudy.5 mph94%30.01 "HgN/A
12:50 AM50 °FPassing clouds.5 mph88%30.01 "HgN/A
12:20 AM50 °FPassing clouds.7 mph88%30.01 "HgN/A
11:50 PM
Tue, May 24
52 °FPassing clouds.6 mph82%30.01 "HgN/A
11:20 PM52 °FPassing clouds.5 mph82%30.01 "HgN/A
10:50 PM52 °FPassing clouds.3 mph82%30.01 "HgN/A
10:20 PM52 °FPartly sunny.5 mph82%30.01 "HgN/A
Weather by CustomWeather, © 2016

See weather overviewHow to use our weather pages